Location: *
(51.0333°S, 178.4667°E)
Time: 12:41:37
(UTC+00:00)

CZ-4 R/B - Pass Details

Date: 28 February 2020
Orbit: 531 x 599 km, 97.8° (Epoch: 05 April)

Event Time Altitude Azimuth Distance (km) Brightness Sun altitude
Rises 07:37:20 0° 167° (SSE) 2,842 5.1 -5.7°
Reaches altitude 10° 07:39:30 10° 167° (SSE) 1,944 4.2 -6.0°
Maximum altitude 07:43:44 84° 255° (WSW) 612 1.6 -6.6°
Drops below altitude 10° 07:47:59 10° 342° (NNW) 1,947 4.1 -7.3°
Sets 07:50:09 0° 342° (NNW) 2,847 4.9 -7.6°
